CCSDS_OMM_VERS = 2.0 CREATION_DATE = ORIGINATOR = OBJECT_NAME = SAUDISAT 1C (SO-50) OBJECT_ID = 2002-058C CENTER_NAME = EARTH REF_FRAME = TEME TIME_SYSTEM = UTC MEAN_ELEMENT_THEORY = SGP/SGP4 EPOCH = 2026-09-12T01:41:55.666752 MEAN_MOTION = 14.83206442 ECCENTRICITY = .00721591 INCLINATION = 64.5512 RA_OF_ASC_NODE = 220.134 ARG_OF_PERICENTER = 246.5319 MEAN_ANOMALY = 112.8191 EPHEMERIS_TYPE = 0 CLASSIFICATION_TYPE = U NORAD_CAT_ID = 27607 ELEMENT_SET_NO = 999 REV_AT_EPOCH = 27734 BSTAR = .97802E-4 MEAN_MOTION_DOT = .68000E-5 MEAN_MOTION_DDOT = 0 CCSDS_OMM_VERS = 2.0 CREATION_DATE = ORIGINATOR = OBJECT_NAME = SAUDISAT 2 OBJECT_ID = 2004-025F CENTER_NAME = EARTH REF_FRAME = TEME TIME_SYSTEM = UTC MEAN_ELEMENT_THEORY = SGP/SGP4 EPOCH = 2026-09-12T06:18:58.338144 MEAN_MOTION = 14.56724629 ECCENTRICITY = .00253429 INCLINATION = 98.5564 RA_OF_ASC_NODE = 257.5199 ARG_OF_PERICENTER = 31.7773 MEAN_ANOMALY = 328.4948 EPHEMERIS_TYPE = 0 CLASSIFICATION_TYPE = U NORAD_CAT_ID = 28371 ELEMENT_SET_NO = 999 REV_AT_EPOCH = 17842 BSTAR = .48130E-4 MEAN_MOTION_DOT = .16600E-5 MEAN_MOTION_DDOT = 0 CCSDS_OMM_VERS = 2.0 CREATION_DATE = ORIGINATOR = OBJECT_NAME = SAUDISAT 3 OBJECT_ID = 2007-012B CENTER_NAME = EARTH REF_FRAME = TEME TIME_SYSTEM = UTC MEAN_ELEMENT_THEORY = SGP/SGP4 EPOCH = 2026-09-12T07:12:07.155648 MEAN_MOTION = 14.71469078 ECCENTRICITY = .00136555 INCLINATION = 98.1538 RA_OF_ASC_NODE = 205.7916 ARG_OF_PERICENTER = 314.5231 MEAN_ANOMALY = 45.4859 EPHEMERIS_TYPE = 0 CLASSIFICATION_TYPE = U NORAD_CAT_ID = 31118 ELEMENT_SET_NO = 999 REV_AT_EPOCH = 4055 BSTAR = .36041E-4 MEAN_MOTION_DOT = .17200E-5 MEAN_MOTION_DDOT = 0 CCSDS_OMM_VERS = 2.0 CREATION_DATE = ORIGINATOR = OBJECT_NAME = PISAT OBJECT_ID = 2016-059B CENTER_NAME = EARTH REF_FRAME = TEME TIME_SYSTEM = UTC MEAN_ELEMENT_THEORY = SGP/SGP4 EPOCH = 2026-09-12T06:13:34.117824 MEAN_MOTION = 14.69120723 ECCENTRICITY = .00275392 INCLINATION = 97.8244 RA_OF_ASC_NODE = 252.0036 ARG_OF_PERICENTER = 288.4502 MEAN_ANOMALY = 71.3712 EPHEMERIS_TYPE = 0 CLASSIFICATION_TYPE = U NORAD_CAT_ID = 41784 ELEMENT_SET_NO = 999 REV_AT_EPOCH = 53252 BSTAR = .11492E-3 MEAN_MOTION_DOT = .63100E-5 MEAN_MOTION_DDOT = 0 CCSDS_OMM_VERS = 2.0 CREATION_DATE = ORIGINATOR = OBJECT_NAME = FLYING LAPTOP OBJECT_ID = 2017-042G CENTER_NAME = EARTH REF_FRAME = TEME TIME_SYSTEM = UTC MEAN_ELEMENT_THEORY = SGP/SGP4 EPOCH = 2026-09-12T07:02:12.418656 MEAN_MOTION = 15.01579794 ECCENTRICITY = .00162214 INCLINATION = 97.4996 RA_OF_ASC_NODE = 47.7012 ARG_OF_PERICENTER = 183.7209 MEAN_ANOMALY = 176.3898 EPHEMERIS_TYPE = 0 CLASSIFICATION_TYPE = U NORAD_CAT_ID = 42831 ELEMENT_SET_NO = 999 REV_AT_EPOCH = 49952 BSTAR = .12760E-3 MEAN_MOTION_DOT = .15990E-4 MEAN_MOTION_DDOT = 0 CCSDS_OMM_VERS = 2.0 CREATION_DATE = ORIGINATOR = OBJECT_NAME = SALSAT OBJECT_ID = 2020-068K CENTER_NAME = EARTH REF_FRAME = TEME TIME_SYSTEM = UTC MEAN_ELEMENT_THEORY = SGP/SGP4 EPOCH = 2026-09-11T23:28:21.147456 MEAN_MOTION = 15.30885844 ECCENTRICITY = .00094697 INCLINATION = 97.888 RA_OF_ASC_NODE = 263.4175 ARG_OF_PERICENTER = 9.1845 MEAN_ANOMALY = 350.9566 EPHEMERIS_TYPE = 0 CLASSIFICATION_TYPE = U NORAD_CAT_ID = 46495 ELEMENT_SET_NO = 999 REV_AT_EPOCH = 32863 BSTAR = .20261E-3 MEAN_MOTION_DOT = .59680E-4 MEAN_MOTION_DDOT = 0